Regional Weather Roundup
Issued by NWS

Home | Current Version | Previous Version | Graphics & Text | Print | Product List | Glossary On
Versions: 1 2 3 4 5 6 7 8 9 10 11 12 13 14 15 16 17 18 19 20 21 22 23 24 25 26 27 28 29 30 31 32 33 34 35 36 37 38 39 40 41 42 43 44 45 46 47 48 49 50
000
ASUS43 KLMK 211510
RWRKY
KENTUCKY REGIONAL WEATHER ROUNDUP
NATIONAL WEATHER SERVICE LOUISVILLE KY
1000 AM EST TUE FEB 21 2017

NOTE "FAIR" INDICATES FEW OR NO CLOUDS BELOW 12,000 FEET
WITH NO SIGNIFICANT WEATHER AND/OR OBSTRUCTIONS TO VISIBILITY.

KYZ001>023-026-027-061>063-070>075-211600-
WESTERN AND SOUTH CENTRAL KENTUCKY

CITY           SKY/WX    TMP DP  RH WIND       PRES   REMARKS
PADUCAH        LGT RAIN  60  52  74 E5        29.92F
HENDERSON      CLOUDY    57  48  72 W3        29.97R
OWENSBORO      CLOUDY    61  48  62 SE10      29.98F
HOPKINSVILLE   MOSUNNY   63  49  61 SE8       29.97R
BOWLING GREEN  PTSUNNY   66  47  50 SE9       30.01S
GLASGOW        PTSUNNY   66  46  48 SE13      30.02S
$$

KYZ024-025-028>034-038-045-046-053-211600-
NORTH CENTRAL KENTUCKY

CITY           SKY/WX    TMP DP  RH WIND       PRES   REMARKS
LOUISVILLE/SDF CLOUDY    66  44  45 S12       30.01F
LOUISVILLE/LOU CLOUDY    65  46  50 VRB6      30.02S
FORT KNOX      CLOUDY    61  46  58 SE9       30.00S
$$

KYZ035>037-039>044-047>052-055>060-089>105-211600-
NORTHEAST KENTUCKY

CITY           SKY/WX    TMP DP  RH WIND       PRES   REMARKS
LEXINGTON      MOSUNNY   61  43  51 S10       30.04F
COVINGTON      CLOUDY    61  46  57 S9        30.02F
FRANKFORT      PTSUNNY   61  44  53 S5        30.03S
$$

KYZ054-064>069-076>088-106>120-211600-
SOUTHEAST KENTUCKY

CITY           SKY/WX    TMP DP  RH WIND       PRES   REMARKS
JACKSON        CLOUDY    65  38  36 VRB3      30.08S
LONDON         PTSUNNY   60  37  42 S7        30.07S
SOMERSET       MOSUNNY   55  43  62 CALM      30.08S
MIDDLESBORO    MOSUNNY   58  40  50 E3        30.09F
MONTICELLO     CLOUDY    64  44  48 VRB6G20   30.07S
$$




USA.gov is the U.S. government's official web portal to all federal, state and local government web resources and services.